Location: Big Meadows
(38.5260°N, 78.4400°W)
Time: 07:15:47
(UTC-05:00)

Daily predictions for brighter satellites

Satellite Brightness Start Highest point End
(mag) Time Altitude Azimuth Time Altitude Azimuth Time Altitude Azimuth
SMAP 3.2 17:21:26 10° SSE 17:25:55 51° ENE 17:30:26 10° N
USA 161 3.6 17:25:41 10° NNW 17:27:04 17° WNW 17:28:30 10° WSW
Cosmos 2233 Rocket 4.2 17:21:21 10° SSE 17:27:25 53° E 17:33:26 10° NNE
Cosmos 1763 Rocket 3.8 17:24:31 10° N 17:29:27 42° ENE 17:34:18 10° SE
ERS-2 3.4 17:27:41 10° ESE 17:30:25 20° ENE 17:33:10 10° NNE
Cosmos 1908 Rocket 4.4 17:26:51 10° NNE 17:30:37 28° ENE 17:34:21 10° SE
Cosmos 1733 Rocket 3.0 17:28:36 10° N 17:33:03 77° E 17:37:29 10° S
Cosmos 1844 Rocket 3.6 17:27:44 10° SW 17:33:13 50° WNW 17:38:41 10° NNE
AQUARIUS 4.2 17:29:50 10° SSE 17:34:15 61° ENE 17:38:42 10° N
Cosmos 2242 Rocket 3.9 17:30:32 10° SSW 17:35:04 75° W 17:39:38 10° N
CZ-2C R/B 3.9 17:33:56 10° S 17:38:38 43° W 17:43:29 10° NNW
COSMOS 2406 3.6 17:33:15 10° NNW 17:38:58 73° WSW 17:44:38 10° SSE
Cosmos 1814 Rocket 4.1 17:36:00 10° NNW 17:41:18 62° ENE 17:46:36 10° SSE
Cosmos 1862 Rocket 3.7 17:37:38 10° S 17:42:03 83° W 17:46:32 10° N
Sich 1 Rocket 4.3 17:38:39 10° NNE 17:42:38 32° ENE 17:46:38 10° SE
Meteor 1-14 Rocket 4.3 17:38:47 10° N 17:44:22 57° ENE 17:49:49 10° SSE
CZ-4C R/B 4.1 17:41:41 10° N 17:46:27 19° NE 17:50:24 13° ENE
SL-27 R/B 3.4 17:45:43 10° N 17:48:28 23° ENE 17:51:14 10° ESE
IRS-1A Rocket 4.3 17:43:49 10° SSE 17:49:33 62° ENE 17:55:13 10° N
CSL-04 Debris 4.4 17:46:06 10° S 17:51:32 78° WSW 17:56:58 10° NNW
Ariane Rocket 3.3 17:48:31 10° S 17:53:36 74° WSW 17:58:41 10° NNW
FENGYUN 3A 4.4 17:49:35 10° SE 17:54:10 29° ENE 17:58:45 10° N
COSMOS 2455 3.5 17:52:19 10° SW 17:58:11 55° WNW 18:04:07 10° NNE
USA 234 3.4 17:52:30 11° NE 17:58:39 59° SE 18:05:03 10° SSW
Cosmos 540 Rocket 4.2 17:54:23 10° N 17:58:55 30° ENE 18:03:25 10° SE
Okean 1-7 3.5 17:57:10 10° SSE 18:01:12 38° E 18:05:16 10° NNE
Cosmos 2297 4.2 17:56:34 10° S 18:01:50 40° ESE 18:06:35 13° NE
CZ-4 R/B 4.4 17:57:51 10° SSE 18:01:56 60° ENE 18:06:03 10° N
Cosmos 1833 Rocket 3.3 17:57:58 10° N 18:03:01 33° ENE 18:08:03 10° ESE
Cosmos 841 Rocket 3.5 17:58:52 10° NNW 18:04:08 66° ENE 18:09:21 10° SSE
Cosmos 1633 3.0 18:01:51 10° N 18:05:20 39° E 18:08:48 10° SSE
MTI 3.6 18:03:29 10° NNE 18:06:42 75° ESE 18:09:55 10° S
CZ-4 R/B 1.5 18:02:54 10° S 18:06:47 71° W 18:10:37 10° NNW
Cosmos 2278 Rocket 2.4 18:01:56 10° SSW 18:07:36 73° WNW 18:13:18 10° NNE
Lacrosse 5 4.2 18:06:23 10° NW 18:08:12 12° NNW 18:10:02 10° N
Cosmos 1486 Rocket 4.0 18:03:47 10° SSW 18:08:59 84° WNW 18:14:16 10° NNE
MOS 1 4.2 18:08:37 10° SSE 18:14:14 65° ENE 18:19:54 10° N
Cosmos 1782 Rocket 3.6 18:10:52 10° N 18:15:07 51° E 18:19:21 10° SSE
YAOGAN 1 2.7 18:15:00 10° S 18:19:18 78° WSW 18:23:39 10° NNW
COSMO-SKYMED 1 2.5 18:15:34 10° NNE 18:19:55 81° E 18:24:16 10° S
Cosmos 1072 Rocket 4.4 18:15:33 10° S 18:21:40 68° E 18:27:56 10° NNE
Cosmos 304 Rocket 4.4 18:18:55 10° NNW 18:23:39 59° WSW 18:28:19 10° S
SPOT 3 Rocket 3.5 18:18:43 10° SSE 18:23:52 63° ENE 18:29:01 10° N
Cosmos 1354 Rocket 3.9 18:20:09 10° S 18:25:24 69° ESE 18:29:47 15° NNE
Cosmos 292 Rocket 4.4 18:22:25 10° N 18:26:26 31° ENE 18:26:26 31° ENE
Cosmos 1441 Rocket 4.1 18:23:36 10° SSE 18:26:30 31° ESE 18:26:30 31° ESE
BREEZE-M DEB (TANK) 2.4 18:25:21 10° WSW 18:27:23 48° NNW 18:27:47 43° N
Cosmos 1606 2.8 18:24:05 10° S 18:27:52 76° W 18:31:39 10° N
MONITOR-E 4.0 18:24:57 10° SSE 18:27:59 88° ENE 18:31:03 10° N
Nadezhda 4 Rocket 4.5 18:22:34 10° NNE 18:28:03 33° ENE 18:33:29 10° SE
Cosmos 2034 Rocket 4.2 18:22:08 10° SSE 18:28:14 51° E 18:34:21 10° NNE
Cosmos 2221 Rocket 3.4 18:27:30 10° S 18:31:54 80° E 18:36:18 10° N
EO 1 Del DPAF 3.6 18:30:48 10° N 18:34:35 65° WNW 18:38:21 10° SSW
NOAA 12 4.0 18:33:37 10° SSE 18:38:55 76° ENE 18:44:15 10° N
Meteor 2-6 Rocket 4.0 18:34:32 10° S 18:39:57 85° E 18:45:31 10° N
CENTAUR R/B 4.4 18:36:38 10° W 18:41:30 23° NW 18:46:53 10° NNE
ERBS 4.5 18:40:59 10° WNW 18:43:53 26° SW 18:46:47 10° S
Cosmos 1782 3.7 18:40:28 10° SSW 18:44:22 48° W 18:48:16 10° N
Cosmos 44 3.8 18:41:27 10° NNW 18:45:15 39° NNE 18:45:15 39° NNE
Cosmos 2082 Rocket 2.0 18:43:24 10° NNW 18:49:06 77° ENE 18:54:45 10° SSE
Meteor 2-20 4.3 18:46:48 10° N 18:52:51 67° E 18:58:52 10° SSE
ALOS 2.4 18:49:14 10° S 18:53:53 74° WSW 18:58:35 10° NNW
Okean 2 Rocket 3.0 18:49:39 10° N 18:54:12 89° W 18:58:43 10° S
Cosmos 1464 Rocket 4.2 18:51:02 10° SSW 18:57:07 69° W 19:03:15 10° N
FengYun 1-2 T 4.2 18:52:35 10° SSE 18:57:58 59° ENE 19:03:26 10° N
Cosmos 405 Rocket 2.8 18:55:11 10° SSW 18:58:56 69° W 18:58:56 69° W
Thor Agena Rocket 3.4 18:59:06 61° ESE 18:59:06 61° ESE 19:04:09 10° S
BREEZE-M DEB (TANK) 4.4 18:55:15 10° WNW 19:00:13 26° SW 19:02:15 15° S
Meteor 1-27 Rocket 3.7 19:00:50 10° S 19:06:44 89° WNW 19:11:10 19° N
BREEZE-M R/B 3.9 19:20:18 10° WNW 19:22:51 46° WSW 19:22:51 46° WSW
CZ-4C R/B 2.9 19:29:00 10° NNW 19:35:39 66° NNE 19:35:39 66° NNE
Cosmos 968 Rocket 4.2 19:33:15 10° SSW 19:37:11 48° WSW 19:37:11 48° WSW
USA 234 4.1 19:39:52 36° N 19:41:28 42° NNW 19:47:31 10° W
Cosmos 1833 Rocket 4.2 19:41:54 10° NW 19:46:52 33° WSW 19:51:48 10° SSW
